Find Starlink 32149

NORAD ID: 60292 Int'l Des: 2024-132 Owner: SPXS Country: US Constellation: starlink operational
LEOCIRCULAR

当前视图

正在加载3D地球...

About Starlink 32149

Starlink 32149 (NORAD 60292) is a starlink constellation satellite (v2 mini) launched Jul 28, 2024 by SPXS of US. It operates in LEO, CIRCULAR orbit with a mass of 730.00 kg.

即将过境

Passes for default location (London). Set your location on the main map for personalized predictions.

高度历史

Loading altitude history...

两行轨道根数

1 60292U 24132Q 26263.18099777 .00000288 00000-0 21053-4 0 9991
2 60292 53.1599 227.9234 0001241 83.0274 277.0869 15.31704501121352
Epoch: Sep 20, 2026 • Age: 20 hours

当前状态

高度 477.3 km
远地点 / 近地点 N/A
速度 7.63 km/s
星下点 -22.03°S, 162.18°W
发射日期 Jul 28, 2024
运行时间 2.1 years
类型 internet

技术详情

分类 Payload
质量 730.00 kg
干质量 700.00 kg
长度 0.30 m
跨度 29.00 m
形状 ? Box + pan
制造商 SPXS
平台类型 Starlink V2M
阶段状态 In Orbit
所有者/国家 SPXS/US

Most Searched